sat.trackr.live / text

‹ back to catalog

STARLINK-35582

NORAD 66537 · 2025-265X

PAYLOAD ACTIVE UNKNOWN

§ Identity

Operator
Country
US
Launch date
2025-11-19
Launch site
AFETR
Launch vehicle
Mass (kg)
RCS (m²)

Purposes: comms

External: N2YO · Heavens-Above · Gunter

§ Orbital elements

Epoch: 2026-05-24T20:50:02.577696Z

Period
94.27 min
Inclination
42.9912°
Eccentricity
0.0002156
Mean motion
15.27589513 rev/d
Perigee alt
481.5 km
Apogee alt
484.5 km
Semi-major
6,861.2 km
B*
2.6805e-4
RAAN
207.7384°
Arg perigee
56.6095°
Mean anomaly
303.4963°
Rev number
2,876

§ Raw data

STARLINK-355821 66537U 25265X   26144.86808539  .00007123  00000+0  26805-3 0  99972 66537  42.9912 207.7384 0002156  56.6095 303.4963 15.27589513 28769

JSON: /api/v1/satellites/66537 · /tle

For live sub-satellite position, see the globe view (requires WebGL).

§ Visibility from observer

Set your observer location to see the next 7 days of passes ≥ 10°. The values pass through the URL so the page stays shareable.

No JS? Fill the form by hand. The geolocation button needs JavaScript.